Theta_e
312 312 311 309 309 308 308 309 310 311 311 313 312 311 310 309 310 312 312 312 315 314 311 310 310 310 320 329 328 330 322 328 339 346 350 353 354 353 353 352 352 353 348 345 344 345 346
312 312 310 309 308 308 308 308 309 310 310 311 312 312 310 309 310 311 312 313 315 314 311 310 310 311 327 331 332 336 340 341 344 348 349 350 351 350 351 352 353 350 347 346 345 346 347
311 310 309 308 308 308 308 308 308 308 309 310 311 312 311 310 309 310 312 313 314 313 311 311 310 316 323 324 329 334 340 341 346 348 351 350 350 351 349 352 351 349 348 347 347 347 348
310 310 309 308 307 308 308 308 307 308 308 309 310 311 311 310 309 310 312 315 314 312 311 311 310 323 324 322 330 336 339 342 346 347 348 350 349 348 350 350 351 350 347 349 348 348 347
309 309 307 307 306 306 307 307 307 307 308 308 309 311 311 311 310 310 312 316 312 311 311 311 322 322 324 325 332 338 338 338 345 348 349 349 348 346 348 352 352 350 352 351 352 347 347
308 308 307 305 304 304 305 306 307 307 307 308 309 310 311 311 310 310 314 316 314 314 314 318 319 324 323 326 326 333 333 337 344 347 348 347 345 349 350 351 353 351 351 352 352 351 348
306 307 306 305 304 304 304 305 306 307 307 307 309 310 310 311 310 310 318 322 325 326 320 321 322 323 324 325 327 331 333 334 337 342 346 344 348 350 348 340 337 343 349 350 350 349 350
306 306 306 305 304 304 304 305 306 307 307 307 309 310 311 312 310 310 313 325 327 324 328 325 321 319 320 322 325 329 330 333 335 343 343 346 349 346 344 338 336 341 347 350 350 350 352
308 306 306 305 304 303 304 304 305 307 307 308 310 311 312 313 310 310 319 323 322 323 330 329 328 325 325 325 327 327 330 331 335 342 345 348 347 344 344 335 337 343 347 348 350 351 353
309 308 307 306 305 303 303 304 305 306 307 309 311 313 312 313 315 318 319 319 319 322 331 331 328 329 326 327 327 326 329 332 334 340 344 345 344 343 342 336 337 344 336 341 347 349 349
308 309 308 306 305 303 303 304 305 306 307 310 313 315 314 313 317 320 322 319 320 324 333 332 329 325 326 325 327 326 330 331 334 338 342 344 342 339 338 338 335 338 336 341 342 345 348
307 308 309 307 305 304 303 304 305 307 308 312 314 318 315 315 316 317 318 319 323 332 335 331 328 327 325 325 326 327 329 330 332 333 335 339 335 334 338 333 336 336 338 342 345 343 348
308 307 308 307 305 304 303 304 305 307 310 314 318 319 314 314 318 315 318 325 333 333 333 332 329 326 326 326 326 326 329 331 333 335 337 338 337 336 332 337 335 336 335 338 339 344 344
308 307 307 307 305 305 303 303 305 308 313 316 320 316 316 315 316 317 321 331 334 330 334 332 329 326 326 327 326 326 327 330 331 332 334 336 337 336 335 337 340 339 335 335 338 339 337
308 307 307 307 305 305 305 303 305 309 314 318 319 318 320 320 315 317 328 332 331 331 335 335 330 330 330 328 326 326 326 327 329 330 333 334 333 333 329 331 330 338 337 334 334 334 335
307 308 307 307 306 306 305 303 306 310 315 319 318 324 324 320 318 320 330 330 331 330 332 333 332 331 333 329 326 326 327 327 327 328 330 331 332 330 327 327 327 329 332 332 333 336 340
307 307 307 307 307 306 306 304 306 311 316 318 319 332 319 319 317 326 331 331 331 329 330 332 333 332 330 329 326 327 328 328 328 328 329 329 330 330 330 330 330 329 329 330 330 332 335
306 306 307 307 307 308 307 305 306 312 316 320 322 332 317 315 320 326 330 331 325 330 330 329 329 331 333 328 327 328 329 330 332 328 328 330 330 331 331 331 330 330 331 330 331 336 332
306 306 305 306 306 307 308 306 306 313 313 316 330 325 317 318 320 325 328 330 330 330 330 329 329 331 333 335 335 328 328 333 332 334 331 330 330 332 333 333 333 333 333 332 333 333 336
305 305 305 305 306 306 308 306 307 314 315 316 329 328 319 321 323 326 325 328 329 327 328 328 329 330 332 335 336 338 336 336 332 332 329 326 331 332 333 334 334 334 335 334 333 335 337
304 305 305 306 306 307 307 305 307 316 316 317 327 331 326 320 323 326 327 327 327 328 328 329 330 330 332 335 337 337 337 336 332 335 333 331 334 335 334 333 333 333 333 335 334 334 336
305 305 305 306 306 306 307 307 306 316 317 321 329 331 328 330 327 327 322 328 328 330 330 330 332 331 331 333 336 337 336 338 338 334 339 333 338 338 338 335 334 333 333 334 335 335 336
305 305 305 305 306 305 307 307 306 312 317 319 319 323 327 324 330 328 326 328 328 327 329 330 330 331 332 332 330 329 330 332 335 336 338 338 339 342 340 339 336 337 335 336 336 340 338
305 305 305 305 306 307 308 307 307 307 312 315 317 320 327 330 330 330 327 327 327 327 329 328 328 331 328 322 323 324 327 329 330 330 331 340 343 340 339 341 343 341 340 338 339 343 344
305 305 305 305 306 307 308 308 307 306 310 316 316 320 324 326 328 328 328 327 327 325 325 328 326 325 323 323 328 332 331 331 330 326 329 330 338 338 340 339 337 341 341 340 342 343 344
303 303 304 305 306 306 307 308 307 307 307 315 316 316 321 327 327 326 327 327 329 328 328 327 327 324 324 327 329 335 335 333 333 328 325 326 333 338 338 338 338 336 341 339 340 347 345
303 304 305 305 305 306 307 308 307 308 307 310 315 314 319 320 323 324 327 327 327 328 329 328 328 329 324 329 331 332 333 329 332 333 333 330 331 332 334 336 335 338 336 337 346 344 344
302 303 302 303 305 306 308 308 308 306 307 309 313 312 316 317 317 317 323 324 324 327 329 329 329 329 329 329 329 330 329 329 329 329 331 331 331 331 330 331 332 333 335 341 343 342 341
302 302 303 303 307 308 307 308 308 308 307 308 313 313 312 317 317 317 316 317 320 320 324 326 330 332 332 330 329 328 328 328 326 327 330 328 328 333 331 335 333 331 335 334 337 340 339
Wind_Speed
17 17 17 17 18 20 20 21 22 20 19 18 16 13 10 8 7 5 4 4 2 2 3 3 2 3 1 6 5 2 14 17 17 12 9 4 3 5 7 7 2 4 6 5 7 10 7
17 17 17 17 17 18 19 20 20 21 21 19 18 15 11 9 7 6 5 4 2 2 2 2 2 3 4 4 3 11 16 21 13 12 6 4 5 8 5 6 4 6 2 8 9 9 6
18 17 18 17 17 17 18 19 19 20 21 21 19 16 12 9 7 6 5 5 3 2 3 2 1 1 6 4 3 14 17 16 12 10 3 4 7 8 11 4 7 1 8 10 9 9 8
19 19 18 18 17 18 18 18 19 20 21 21 20 19 14 9 7 6 5 4 2 3 3 2 1 2 3 1 5 15 15 11 10 11 7 8 8 9 4 7 4 4 5 7 6 7 6
21 20 20 19 19 18 18 19 18 20 21 22 21 20 17 10 6 5 4 1 1 1 1 1 2 5 3 4 8 15 13 8 10 9 7 7 8 6 4 6 8 7 3 4 6 6 5
21 21 21 21 20 19 20 20 19 20 23 23 22 21 18 12 7 4 1 2 2 0 1 2 4 5 7 3 8 12 11 7 8 9 7 7 4 8 8 5 2 5 1 4 4 7 8
22 22 22 22 22 22 21 20 19 21 23 24 22 23 18 13 7 2 3 1 5 5 7 5 3 2 7 8 10 12 13 10 8 9 9 6 7 1 9 7 8 9 8 8 2 1 8
23 23 23 23 23 23 23 22 22 23 24 26 24 23 19 12 5 3 5 5 3 5 5 11 8 6 4 2 6 10 15 11 10 12 8 8 9 6 9 5 10 8 8 2 2 1 6
22 23 24 24 24 24 24 25 25 25 26 27 25 24 20 11 4 3 6 4 3 6 6 8 8 10 9 11 9 15 17 16 12 14 11 12 2 3 9 9 9 2 6 2 6 1 7
22 23 24 24 25 25 26 26 27 27 29 29 27 24 20 7 1 2 5 6 3 3 5 11 9 7 9 7 9 10 21 10 8 13 13 10 6 7 5 9 7 4 8 5 2 8 4
23 23 24 25 26 26 26 26 29 28 31 30 28 25 19 4 5 5 2 2 3 5 5 7 7 4 8 14 9 10 18 11 14 10 8 7 7 6 8 6 4 7 8 3 10 10 9
24 24 24 26 27 27 28 28 30 30 33 32 28 25 17 3 6 6 2 2 5 6 5 7 8 12 14 14 7 8 12 10 5 8 11 13 1 7 8 2 8 1 3 4 8 10 7
23 24 25 26 28 29 29 29 31 33 35 33 28 20 10 6 1 2 3 6 6 7 3 7 9 12 18 12 13 9 15 16 12 11 14 15 15 14 9 12 7 9 12 8 5 6 3
24 25 25 27 28 31 31 31 33 35 37 34 26 10 5 10 4 3 7 7 8 2 5 4 3 9 14 13 15 13 9 15 17 12 9 9 15 15 11 15 17 13 11 9 4 4 5
24 25 25 27 29 31 32 32 35 37 38 32 12 1 3 2 10 5 8 11 4 3 1 3 6 10 12 10 7 14 15 13 15 16 14 6 14 4 3 7 9 9 10 11 11 7 8
23 24 25 27 29 32 33 33 36 38 38 24 6 4 4 2 11 8 9 14 3 2 3 4 9 10 13 15 14 14 12 9 13 13 16 9 10 5 6 5 5 10 4 8 10 5 7
23 24 25 27 29 31 34 34 35 40 35 14 3 4 5 5 11 7 11 11 7 3 5 3 2 6 8 9 16 14 11 6 6 9 13 14 10 8 3 8 3 6 12 9 6 5 3
23 24 26 27 30 32 33 35 35 40 34 9 5 4 7 7 8 9 12 10 1 6 4 4 5 6 6 9 14 14 11 3 4 7 8 17 9 10 13 3 5 9 9 13 8 11 5
24 24 26 28 31 32 33 34 34 37 25 8 3 2 6 4 7 9 8 10 9 7 7 4 4 2 2 4 6 12 11 6 4 9 6 9 10 9 10 9 6 9 10 9 3 4 5
23 24 26 28 30 32 33 35 34 35 18 1 3 4 4 5 3 8 13 14 14 6 11 9 9 7 8 8 7 6 9 7 3 6 4 3 14 11 10 8 5 14 10 11 12 7 7
23 24 25 27 29 31 33 34 33 33 14 1 1 2 5 6 9 6 5 2 12 8 6 5 8 14 13 12 9 9 8 7 6 6 6 7 10 7 14 9 8 13 12 13 13 13 7
21 23 24 26 27 29 32 34 33 32 9 2 4 4 1 1 3 9 6 9 8 5 6 7 10 5 13 14 12 11 12 9 8 8 7 7 6 6 10 5 10 14 15 14 15 5 6
21 22 23 24 25 26 29 31 32 29 18 7 6 2 4 4 4 6 8 8 6 2 5 6 7 7 9 7 4 5 4 2 2 5 8 6 7 8 14 3 6 10 13 13 12 5 8
20 22 22 23 24 25 26 28 29 28 17 7 7 5 4 2 5 2 2 4 7 5 7 1 3 6 4 3 4 5 4 3 3 3 3 5 6 7 12 4 14 2 3 5 9 3 6
19 20 21 22 23 24 25 25 25 25 18 6 8 5 3 4 3 3 3 3 5 4 7 5 2 3 3 4 6 5 6 6 5 1 4 4 7 8 10 14 16 8 4 6 9 9 5
20 20 21 22 23 23 24 23 24 23 21 4 7 8 4 5 4 4 6 3 3 3 5 4 2 3 4 4 4 6 7 9 6 6 2 5 5 7 9 13 18 13 12 3 1 11 13
19 20 20 22 23 23 23 22 22 21 20 9 4 10 5 4 2 5 2 4 4 4 4 2 1 3 3 4 7 8 10 1 7 10 5 6 6 12 13 13 15 6 5 5 7 1 14
19 19 21 23 23 22 22 21 21 20 19 13 4 7 7 4 6 4 3 3 3 2 5 5 5 5 4 6 5 6 8 4 5 8 7 12 11 12 11 17 21 5 5 7 4 10 15
19 19 20 22 22 22 22 21 19 18 17 13 4 6 8 7 5 5 12 13 9 6 5 1 4 2 5 4 3 2 6 3 8 10 5 7 6 6 3 4 4 2 3 1 6 11 13
Wind_Direction
26 24 25 26 24 22 22 20 17 16 14 12 6 356 346 341 334 331 322 317 264 249 268 279 293 316 308 221 73 137 147 156 158 176 193 205 289 335 23 2 346 318 43 96 123 141 144
24 21 20 20 22 18 19 18 16 15 14 10 5 359 347 339 331 326 313 309 269 230 252 259 296 319 258 230 65 157 152 160 176 182 197 230 342 348 300 332 350 353 340 115 135 136 146
21 20 19 16 17 15 14 14 12 9 9 7 4 0 350 337 327 324 313 303 265 202 230 239 267 295 253 21 97 159 162 174 185 198 190 279 308 312 334 317 355 334 138 138 144 157 148
21 17 17 13 13 12 11 10 7 7 5 3 3 357 353 339 324 319 308 296 253 206 196 231 266 255 307 35 157 163 173 180 201 215 271 298 302 293 269 318 238 214 229 181 144 182 145
18 16 16 13 11 12 9 7 5 3 4 0 359 355 350 341 322 314 308 274 230 210 155 163 249 259 144 123 174 180 180 185 184 207 243 282 286 302 258 246 212 192 130 124 161 215 170
17 15 14 11 10 11 9 6 5 1 1 359 354 353 347 340 327 325 303 164 163 171 244 197 252 233 172 158 155 174 186 191 189 196 224 238 240 262 214 222 352 355 351 173 234 177 210
16 15 11 10 9 9 8 6 3 1 358 356 354 351 344 337 329 311 149 206 209 187 217 272 104 342 128 116 143 180 177 185 174 207 228 205 263 268 10 354 326 296 278 283 288 124 279
14 13 9 7 8 7 5 5 2 359 356 354 351 348 343 333 312 237 182 250 24 359 243 221 242 260 210 190 168 168 182 202 204 226 205 214 228 276 334 313 308 291 278 79 273 241 248
10 9 7 5 4 4 4 3 2 357 354 353 348 345 344 333 307 187 228 225 196 326 253 167 208 228 203 200 217 177 189 211 218 228 219 262 161 223 308 308 320 170 314 76 35 171 214
7 6 5 3 2 4 1 360 358 356 353 351 347 342 341 350 100 208 218 193 248 253 263 156 200 199 184 224 218 165 202 205 217 241 225 256 259 261 270 291 303 103 357 304 277 317 359
4 3 2 1 1 1 359 357 356 354 350 347 343 338 333 314 300 229 91 178 239 221 256 134 147 120 159 199 124 177 193 211 239 203 222 216 210 203 245 309 299 13 336 345 28 288 307
1 0 359 358 359 358 358 356 355 351 349 344 338 332 325 322 227 239 208 281 194 230 236 149 142 174 173 201 183 136 182 223 279 239 228 270 169 266 279 310 284 133 264 182 188 250 234
0 358 357 356 357 358 356 354 353 351 347 341 334 321 285 210 60 199 214 195 219 245 122 161 177 178 192 182 189 194 189 201 215 219 231 231 232 233 245 252 218 238 254 255 223 206 28
360 357 356 355 357 357 355 354 352 350 346 339 332 315 274 203 240 203 195 213 242 301 209 118 185 188 203 195 210 197 202 216 219 256 274 230 232 214 203 253 270 232 269 287 274 270 23
358 356 356 355 357 357 354 355 353 350 346 338 342 310 214 232 201 204 214 214 223 220 46 211 177 203 196 198 247 202 220 227 217 212 240 222 238 275 259 256 256 218 238 273 285 225 258
358 355 355 356 355 357 354 356 355 350 347 340 331 230 124 224 178 207 218 232 227 274 321 233 233 210 201 193 199 197 188 215 224 217 229 250 264 241 131 199 213 259 349 216 219 273 265
357 355 355 355 354 357 356 355 356 351 349 343 244 220 14 161 161 209 216 219 228 213 273 282 233 221 251 190 202 196 197 164 211 199 232 236 238 144 203 203 270 177 226 234 301 289 290
357 356 356 355 356 356 356 355 358 355 351 14 286 208 143 151 193 210 223 217 4 222 200 264 280 280 246 206 210 215 209 228 148 189 200 215 231 234 239 76 273 276 283 208 227 188 244
356 356 357 356 356 356 355 355 359 359 355 327 304 91 179 231 213 209 210 237 241 227 228 254 268 261 316 234 222 225 227 103 209 209 221 180 224 221 215 174 184 231 206 247 272 288 190
357 356 356 358 358 356 355 356 360 1 355 270 273 182 154 214 292 274 211 229 225 212 257 262 271 272 253 232 210 200 195 173 169 222 30 260 250 240 252 257 214 197 211 224 237 229 190
358 356 357 358 359 358 357 358 2 4 1 331 300 66 354 188 204 225 219 259 224 226 221 227 237 243 246 246 217 219 198 161 184 148 195 233 251 254 266 288 285 261 250 207 230 261 256
357 355 358 358 359 0 360 1 4 9 24 7 335 326 206 183 207 220 168 199 229 212 236 217 242 270 249 243 258 242 205 204 196 178 203 214 253 264 271 253 259 250 246 254 230 221 231
355 356 357 357 358 1 2 3 6 13 32 25 7 301 284 137 193 218 220 240 237 250 194 262 283 271 239 245 325 322 348 15 75 231 201 223 253 247 264 175 253 246 230 229 221 227 249
354 356 357 358 357 360 2 4 7 13 26 6 10 297 288 169 251 292 262 261 233 244 279 188 275 256 51 296 243 235 209 169 183 160 258 208 235 267 265 240 240 33 353 271 242 209 227
354 355 357 358 359 360 1 4 4 7 19 13 5 337 329 273 321 191 320 295 260 221 223 247 79 7 279 239 231 201 193 198 180 229 240 273 248 250 253 241 248 190 193 193 198 209 208
355 357 358 359 359 360 1 1 3 4 9 19 3 350 302 305 91 332 306 332 291 222 183 175 107 341 261 254 226 232 224 242 194 173 224 222 250 266 238 262 260 281 112 122 172 246 182
353 354 354 355 0 360 1 0 1 1 4 6 333 0 292 294 77 325 334 335 314 263 280 161 359 208 251 228 240 240 242 245 243 237 216 209 240 239 244 254 265 95 118 166 219 330 155
353 353 360 1 356 360 358 359 358 359 1 11 320 358 349 307 294 277 298 311 295 274 294 49 229 195 229 241 256 233 265 247 267 275 273 252 252 252 245 263 251 111 151 224 43 136 147
352 356 357 358 359 357 358 355 354 352 355 12 313 338 321 254 319 290 276 273 280 298 306 299 346 7 10 268 228 308 236 219 258 249 182 245 261 313 315 12 358 265 319 104 136 138 137